Location: Houghton
(47.1220°N, 88.5690°W)
Time: 03:12:57
(UTC-04:00)

Amateur Radio Satellites - All Passes

Search period start: 20 October 2017 02:42
Search period end: 21 October 2017 02:42
Location: Houghton, 47.1220°N, 88.5690°W

Satellite Date Start Highest point End Downlink Frequencies (MHz)
Time Altitude Azimuth
VELOX 1 20 Oct 02:43:54 02:47:19 22° 267° (W) 02:50:45 145.980
M-CUBED/EXP-1 PRIME 20 Oct 02:46:48 02:48:32 13° 98° (E) 02:50:19 437.505
QB50P2 20 Oct 02:57:12 03:00:45 26° 295° (WNW) 03:04:16 145.880/145.840
NANOSAT C BR1 20 Oct 03:00:55 03:04:34 28° 294° (WNW) 03:08:12 145.865
MOZHAYETS 4 20 Oct 03:10:13 03:13:50 23° 63° (ENE) 03:17:27
DUCHIFAT 1 20 Oct 03:12:06 03:15:35 25° 295° (WNW) 03:19:02 145.980
Oscar 19 20 Oct 03:14:54 03:19:54 50° 100° (E) 03:24:51 437.125/150
BUGSAT 1 20 Oct 03:21:20 03:25:34 66° 287° (WNW) 03:29:43 437.445
ITUPSAT 1 20 Oct 03:33:41 03:38:01 35° 66° (ENE) 03:42:23 437.325
NO-84 20 Oct 03:37:44 03:39:38 13° 125° (SE) 03:41:31 435.350 FM
Gurwin Techsat 1B 20 Oct 03:42:01 03:47:19 62° 102° (ESE) 03:52:34 435.225
RS-15 20 Oct 03:44:37 03:56:54 66° 315° (NW) 04:09:06 29.354- 29.394
BEESAT 20 Oct 03:49:14 03:53:50 49° 69° (ENE) 03:58:27 436.000
DX 1 20 Oct 03:52:36 03:55:20 16° 269° (W) 03:58:06 434.975-435.025
UKube-1 20 Oct 04:18:16 04:20:30 14° 270° (W) 04:22:43 .
M-CUBED/EXP-1 PRIME 20 Oct 04:19:47 04:23:11 51° 293° (WNW) 04:26:48 437.505
KKS-1 20 Oct 04:42:09 04:44:36 15° 58° (ENE) 04:47:02 437.445
MOZHAYETS 4 20 Oct 04:46:14 04:50:42 47° 261° (W) 04:55:11
Oscar 19 20 Oct 04:54:48 04:58:56 25° 298° (WNW) 05:03:04 437.125/150
CUBESAT XI-V 20 Oct 04:56:02 05:00:32 54° 71° (ENE) 05:05:03 437.345
AO-7 20 Oct 05:04:47 05:12:45 47° 100° (E) 05:20:40 .
ITUPSAT 1 20 Oct 05:11:36 05:15:51 31° 264° (W) 05:20:09 437.325
NO-84 20 Oct 05:12:09 05:16:26 67° 142° (SE) 05:20:36 435.350 FM
STARS 20 Oct 05:16:26 05:18:39 14° 58° (ENE) 05:20:53 437.465
Gurwin Techsat 1B 20 Oct 05:22:47 05:26:50 22° 300° (WNW) 05:30:52 435.225
ITAMSAT 1 20 Oct 05:25:37 05:30:45 53° 100° (E) 05:35:51 435.822/435.867
BEESAT 20 Oct 05:28:08 05:31:51 22° 267° (W) 05:35:35 436.000
O/OREOS (USA 219) 20 Oct 05:54:40 05:56:56 13° 43° (NE) 05:59:12 437.305
RS-15 20 Oct 06:01:10 06:12:13 36° 346° (NNW) 06:23:00 29.354- 29.394
KKS-1 20 Oct 06:16:09 06:20:34 75° 258° (WSW) 06:25:03 437.445
DOVE 4 20 Oct 06:22:20 06:26:40 29° 95° (E) 06:31:08 437.250
CUBESAT XI-V 20 Oct 06:35:00 06:38:14 18° 269° (W) 06:41:27 437.345
STARS 20 Oct 06:49:59 06:54:22 80° 256° (WSW) 06:58:49 437.465
NO-84 20 Oct 06:50:06 06:54:05 37° 341° (NNW) 06:57:55 435.350 FM
XW-2C 20 Oct 06:56:36 06:58:06 12° 89° (E) 06:59:35 145.795 - 145.815
AO-7 20 Oct 06:57:43 07:05:32 48° 301° (WNW) 07:13:21 .
ITAMSAT 1 20 Oct 07:05:40 07:09:54 25° 299° (WNW) 07:14:06 435.822/435.867
STRAND 1 20 Oct 07:15:32 07:19:35 24° 61° (ENE) 07:23:39 437.568
HO-68 20 Oct 07:18:54 07:20:57 11° 83° (E) 07:22:59 435.675
SO-50 20 Oct 07:28:19 07:31:29 19° 112° (ESE) 07:34:40 436.795
CUTE-I 20 Oct 07:32:10 07:36:49 29° 94° (E) 07:41:26 437.470
O/OREOS (USA 219) 20 Oct 07:32:33 07:37:11 77° 63° (ENE) 07:41:46 437.305
KAITUO 1B 20 Oct 07:39:16 07:42:25 26° 95° (E) 07:45:33 145.475/437.950
XW-2F 20 Oct 07:40:16 07:43:43 34° 97° (E) 07:47:07 145.980 - 146.000
LilacSat-2 20 Oct 07:44:38 07:48:16 44° 99° (E) 07:51:52 437.200
XW-2D 20 Oct 07:52:15 07:55:56 53° 100° (E) 07:59:35 145.860 - 145.880
NUDT-PHONESAT 20 Oct 07:53:50 07:57:16 37° 98° (E) 08:00:40 437.300
DOVE 4 20 Oct 07:59:49 08:04:24 40° 291° (WNW) 08:09:10 437.250
XW-2B 20 Oct 08:05:38 08:09:24 74° 102° (ESE) 08:13:08 145.730 - 145.750
FO-29 20 Oct 08:13:36 08:16:46 16° 53° (NE) 08:20:04 435.910
RS-15 20 Oct 08:17:41 08:28:53 39° 21° (NNE) 08:39:36 29.354- 29.394
NO-84 20 Oct 08:28:45 08:32:17 26° 2° (N) 08:35:38 435.350 FM
XW-2C 20 Oct 08:28:58 08:32:39 57° 287° (WNW) 08:36:18 145.795 - 145.815
CUBEBUG 2 20 Oct 08:33:18 08:36:57 22° 91° (E) 08:40:30 437.445
YUBILEINY 20 Oct 08:39:16 08:41:27 11° 68° (ENE) 08:43:37 435.215
AO-7 20 Oct 08:52:22 08:56:19 14° 324° (NW) 09:00:18 .
ZACube-1 20 Oct 08:52:46 08:53:14 10° 85° (E) 08:53:42 437.345
STRAND 1 20 Oct 08:53:25 08:58:25 53° 260° (W) 09:03:29 437.568
HO-68 20 Oct 09:02:59 09:10:08 62° 103° (ESE) 09:17:15 435.675
PCSat 20 Oct 09:06:53 09:11:32 30° 111° (ESE) 09:16:13 145.827
SO-50 20 Oct 09:07:05 09:11:31 61° 311° (NW) 09:16:00 436.795
CUTE 1.7 + AOD 2 20 Oct 09:11:19 09:15:33 84° 100° (E) 09:19:45 437.475
UWE-3 20 Oct 09:11:43 09:15:45 30° 95° (E) 09:19:38 435.000/436.395/437.385
CUTE-I 20 Oct 09:11:56 09:17:01 45° 293° (WNW) 09:22:05 437.470
KAITUO 1B 20 Oct 09:13:17 09:16:20 25° 293° (WNW) 09:19:21 145.475/437.950
O/OREOS (USA 219) 20 Oct 09:13:46 09:15:56 13° 262° (W) 09:18:06 437.305
XW-2F 20 Oct 09:14:52 09:17:37 20° 295° (WNW) 09:20:22 145.980 - 146.000
UNISAT 6 20 Oct 09:18:49 09:21:07 14° 57° (ENE) 09:23:25 437.425
SEEDS 20 Oct 09:18:59 09:23:07 64° 101° (E) 09:27:15 437.485
LilacSat-2 20 Oct 09:19:48 09:22:12 16° 296° (WNW) 09:24:37 437.200
XW-2D 20 Oct 09:27:39 09:29:41 14° 298° (WNW) 09:31:43 145.860 - 145.880
Oscar 11 20 Oct 09:28:10 09:30:41 15° 90° (E) 09:33:12 .
NUDT-PHONESAT 20 Oct 09:28:19 09:30:52 18° 295° (WNW) 09:33:25 437.300
XW-2A 20 Oct 09:31:27 09:34:45 51° 101° (E) 09:37:59 145.665 - 145.685
TIGRISAT 20 Oct 09:32:54 09:35:51 17° 60° (ENE) 09:38:49 435.000
XW-2B 20 Oct 09:42:00 09:43:01 11° 300° (WNW) 09:44:02 145.730 - 145.750
AAUSAT CUBESAT 2 20 Oct 09:43:39 09:47:42 53° 100° (E) 09:51:44 437.432
FO-29 20 Oct 09:55:43 10:00:57 89° 238° (WSW) 10:06:42 435.910
AO-73 20 Oct 10:03:54 10:08:10 49° 99° (E) 10:12:18 145.935
NO-84 20 Oct 10:06:34 10:10:26 44° 23° (NNE) 10:14:00 435.350 FM
CUBEBUG 2 20 Oct 10:09:19 10:13:47 45° 290° (WNW) 10:18:07 437.445
ZACube-1 20 Oct 10:25:45 10:30:12 88° 286° (WNW) 10:34:30 437.345
PRISM 20 Oct 10:26:36 10:29:50 23° 65° (ENE) 10:33:04 437.425
YUBILEINY 20 Oct 10:27:45 10:36:09 57° 90° (E) 10:44:37 435.215
RS-15 20 Oct 10:31:19 10:43:27 80° 51° (NE) 10:54:53 29.354- 29.394
Max Valier Satellite 20 Oct 10:37:20 10:38:35 11° 89° (E) 10:39:51 145.860
UWE-3 20 Oct 10:48:09 10:52:10 31° 293° (WNW) 10:56:04 435.000/436.395/437.385
CUTE 1.7 + AOD 2 20 Oct 10:49:11 10:50:45 12° 301° (WNW) 10:52:18 437.475
PCSat 20 Oct 10:49:27 10:54:42 50° 310° (NW) 11:00:00 145.827
SO-50 20 Oct 10:50:08 10:52:52 16° 333° (NNW) 10:55:39 436.795
HO-68 20 Oct 10:51:17 10:57:28 32° 302° (WNW) 11:03:39 435.675
UNISAT 6 20 Oct 10:52:26 10:57:06 89° 256° (WSW) 11:01:51 437.425
SEEDS 20 Oct 10:55:59 10:58:19 15° 299° (WNW) 11:00:40 437.485
ISS 20 Oct 10:59:18 11:01:24 16° 136° (SE) 11:03:30 437.550
Oscar 11 20 Oct 11:02:58 11:07:12 59° 287° (WNW) 11:11:25 .
XW-2A 20 Oct 11:05:43 11:07:02 12° 298° (WNW) 11:08:19 145.665 - 145.685
TIGRISAT 20 Oct 11:07:21 11:11:59 70° 258° (WSW) 11:16:42 435.000
DELFI C3 20 Oct 11:13:21 11:17:08 42° 98° (E) 11:20:54 145.870
AAUSAT CUBESAT 2 20 Oct 11:20:06 11:22:46 17° 297° (WNW) 11:25:26 437.432
AIST 2D 20 Oct 11:34:23 11:37:21 26° 69° (ENE) 11:40:20 435.315
AO-73 20 Oct 11:40:54 11:44:02 20° 298° (WNW) 11:47:08 145.935
NO-84 20 Oct 11:44:11 11:47:48 39° 224° (SW) 11:51:08 435.350 FM
FO-29 20 Oct 11:44:57 11:47:08 12° 276° (W) 11:49:24 435.910
EO-79 20 Oct 11:52:13 11:55:26 21° 63° (ENE) 11:58:40 145.935-145.965
POLYITAN 1 20 Oct 11:56:42 12:00:06 23° 64° (ENE) 12:03:30 437.675
EO-88 20 Oct 11:59:33 12:03:12 77° 103° (ESE) 12:06:49 145.990 - 145.960
PRISM 20 Oct 12:01:14 12:04:56 34° 262° (W) 12:08:41 437.425
nSIGHT-1 20 Oct 12:01:44 12:04:53 57° 149° (SSE) 12:08:02 .
ZACube-1 20 Oct 12:04:12 12:05:44 12° 303° (WNW) 12:07:16 437.345
Max Valier Satellite 20 Oct 12:09:09 12:12:48 58° 286° (WNW) 12:16:23 145.860
QB50P2 20 Oct 12:16:16 12:20:14 38° 69° (ENE) 12:24:14 145.880/145.840
NANOSAT C BR1 20 Oct 12:19:44 12:23:35 34° 68° (ENE) 12:27:27 145.865
YUBILEINY 20 Oct 12:25:28 12:33:21 37° 293° (WNW) 12:41:20 435.215
DUCHIFAT 1 20 Oct 12:30:24 12:34:21 38° 69° (ENE) 12:38:19 145.980
UNISAT 6 20 Oct 12:33:08 12:34:30 11° 274° (W) 12:35:53 437.425
ISS 20 Oct 12:34:13 12:37:28 88° 152° (SSE) 12:40:45 437.550
PCSat 20 Oct 12:36:25 12:39:27 15° 333° (NNW) 12:42:29 145.827
BUGSAT 1 20 Oct 12:40:11 12:42:38 15° 60° (ENE) 12:45:07 437.445
RS-15 20 Oct 12:44:43 12:54:43 34° 256° (WSW) 13:04:17 29.354- 29.394
DELFI C3 20 Oct 12:48:47 12:51:37 19° 296° (WNW) 12:54:25 145.870
LO-87 20 Oct 12:49:28 12:52:55 39° 98° (E) 12:56:20 145.935 - 145.965
Oscar 19 20 Oct 12:58:02 13:01:11 17° 57° (ENE) 13:04:20 437.125/150
ESTCUBE 1 20 Oct 13:03:17 13:07:31 39° 98° (E) 13:11:43 437.505/2401.250
AIST 2D 20 Oct 13:07:43 13:10:30 22° 266° (W) 13:13:19 435.315
BEESAT 2 20 Oct 13:11:45 13:12:12 10° 108° (ESE) 13:12:39 435.950
BEESAT 3 20 Oct 13:24:49 13:28:37 43° 120° (ESE) 13:32:27 437.485
EO-79 20 Oct 13:26:50 13:30:54 44° 261° (W) 13:35:02 145.935-145.965
Gurwin Techsat 1B 20 Oct 13:28:09 13:32:06 22° 59° (ENE) 13:36:02 435.225
POLYITAN 1 20 Oct 13:31:38 13:35:40 39° 262° (W) 13:39:44 437.675
M-CUBED/EXP-1 PRIME 20 Oct 13:34:53 13:37:43 26° 63° (ENE) 13:40:30 437.505
nSIGHT-1 20 Oct 13:38:12 13:41:16 41° 349° (NNW) 13:44:20 .
SPROUT 20 Oct 13:44:58 13:48:42 28° 95° (E) 13:52:24 437.525
QB50P2 20 Oct 13:52:45 13:56:09 23° 267° (W) 13:59:34 145.880/145.840
NANOSAT C BR1 20 Oct 13:55:47 13:59:20 25° 266° (W) 14:02:55 145.865
DUCHIFAT 1 20 Oct 14:06:46 14:10:08 22° 267° (W) 14:13:31 145.980
ISS 20 Oct 14:11:07 14:14:11 37° 353° (N) 14:17:16 437.550
BUGSAT 1 20 Oct 14:13:20 14:17:30 65° 259° (W) 14:21:43 437.445
SO-50 20 Oct 14:15:37 14:17:54 13° 23° (NNE) 14:20:10 436.795
AO-7 20 Oct 14:17:24 14:23:30 24° 46° (NE) 14:29:36 .
LO-87 20 Oct 14:23:36 14:26:03 17° 296° (WNW) 14:28:28 145.935 - 145.965
VELOX 1 20 Oct 14:29:17 14:33:40 54° 101° (E) 14:38:01 145.980
AO-85 20 Oct 14:29:34 14:33:12 40° 119° (ESE) 14:36:57 145.980
Oscar 19 20 Oct 14:34:40 14:39:51 84° 255° (WSW) 14:45:02 437.125/150
ESTCUBE 1 20 Oct 14:40:29 14:44:08 25° 296° (WNW) 14:47:46 437.505/2401.250
BEESAT 2 20 Oct 14:45:12 14:49:14 87° 121° (ESE) 14:53:19 435.950
BEESAT 3 20 Oct 15:02:52 15:06:19 27° 319° (NW) 15:09:46 437.485
50 SAT 20 Oct 15:05:00 15:08:06 37° 99° (E) 15:11:12 437.505
Gurwin Techsat 1B 20 Oct 15:06:18 15:11:34 65° 258° (WSW) 15:16:52 435.225
ITAMSAT 1 20 Oct 15:09:29 15:12:57 18° 57° (ENE) 15:16:24 435.822/435.867
M-CUBED/EXP-1 PRIME 20 Oct 15:09:36 15:12:12 20° 259° (W) 15:14:44 437.505
nSIGHT-1 20 Oct 15:14:57 15:17:58 37° 8° (N) 15:21:00 .
SPROUT 20 Oct 15:20:46 15:24:35 31° 293° (WNW) 15:28:22 437.525
DX 1 20 Oct 15:35:26 15:39:49 68° 103° (ESE) 15:44:10 434.975-435.025
ISS 20 Oct 15:47:55 15:51:06 45° 14° (NNE) 15:54:16 437.550
SO-50 20 Oct 15:55:03 15:59:28 45° 45° (NE) 16:03:56 436.795
UKube-1 20 Oct 15:59:21 16:03:42 77° 104° (ESE) 16:08:01 .
VELOX 1 20 Oct 16:06:37 16:09:43 19° 299° (WNW) 16:12:50 145.980
AO-7 20 Oct 16:06:50 16:15:07 81° 68° (ENE) 16:23:26 .
PCSat 20 Oct 16:08:22 16:11:25 15° 27° (NNE) 16:14:27 145.827
AO-85 20 Oct 16:10:21 16:13:43 27° 320° (NW) 16:17:12 145.980
Oscar 19 20 Oct 16:18:09 16:19:57 12° 274° (W) 16:21:45 437.125/150
BEESAT 2 20 Oct 16:24:45 16:27:31 17° 326° (NNW) 16:30:18 435.950
MOZHAYETS 4 20 Oct 16:38:05 16:42:12 32° 96° (E) 16:46:16
50 SAT 20 Oct 16:38:11 16:40:08 15° 296° (WNW) 16:42:05 437.505
ITAMSAT 1 20 Oct 16:46:37 16:51:48 76° 256° (WSW) 16:57:03 435.822/435.867
nSIGHT-1 20 Oct 16:51:14 16:54:27 78° 208° (SSW) 16:57:39 .
CUBESAT XI-V 20 Oct 16:52:08 16:52:57 10° 86° (E) 16:53:45 437.345
ITUPSAT 1 20 Oct 17:08:08 17:12:51 52° 100° (E) 17:17:31 437.325
DX 1 20 Oct 17:12:53 17:15:29 16° 300° (WNW) 17:18:04 434.975-435.025
CUTE-I 20 Oct 17:21:30 17:23:02 11° 51° (NE) 17:24:35 437.470
BEESAT 20 Oct 17:23:32 17:28:20 75° 104° (ESE) 17:33:06 436.000
ISS 20 Oct 17:24:27 17:27:37 49° 213° (SSW) 17:30:48 437.550
DOVE 4 20 Oct 17:31:07 17:34:57 35° 68° (ENE) 17:38:57 437.250
SO-50 20 Oct 17:35:49 17:39:47 29° 244° (WSW) 17:43:46 436.795
UKube-1 20 Oct 17:36:57 17:39:08 14° 302° (WNW) 17:41:19 .
XW-2C 20 Oct 17:41:53 17:42:40 11° 60° (ENE) 17:43:28 145.795 - 145.815
PCSat 20 Oct 17:50:51 17:56:09 50° 50° (NE) 18:01:24 145.827
HO-68 20 Oct 17:51:06 17:55:02 16° 46° (NE) 17:59:00 435.675
AO-7 20 Oct 18:02:14 18:08:45 25° 268° (W) 18:15:19 .
KKS-1 20 Oct 18:04:54 18:07:48 17° 91° (E) 18:10:42 437.445
MOZHAYETS 4 20 Oct 18:15:16 18:19:19 31° 294° (WNW) 18:23:19
KAITUO 1B 20 Oct 18:22:13 18:25:01 20° 66° (ENE) 18:27:50 145.475/437.950
XW-2F 20 Oct 18:23:54 18:27:05 26° 68° (ENE) 18:30:17 145.980 - 146.000
CUBESAT XI-V 20 Oct 18:26:22 18:31:00 88° 109° (ESE) 18:35:36 437.345
nSIGHT-1 20 Oct 18:28:35 18:30:16 14° 225° (SW) 18:31:58 .
LilacSat-2 20 Oct 18:29:10 18:32:38 34° 70° (ENE) 18:36:08 437.200
ITAMSAT 1 20 Oct 18:31:06 18:32:09 11° 274° (W) 18:33:11 435.822/435.867
CUTE 1.7 + AOD 2 20 Oct 18:34:32 18:35:30 11° 58° (ENE) 18:36:28 437.475
NUDT-PHONESAT 20 Oct 18:35:40 18:38:49 27° 68° (ENE) 18:42:00 437.300
XW-2D 20 Oct 18:36:01 18:39:34 39° 71° (ENE) 18:43:07 145.860 - 145.880
STARS 20 Oct 18:37:23 18:39:58 15° 90° (E) 18:42:31 437.465
ITUPSAT 1 20 Oct 18:46:40 18:50:20 22° 299° (WNW) 18:53:59 437.325
XW-2B 20 Oct 18:49:17 18:53:00 53° 73° (ENE) 18:56:43 145.730 - 145.750
CUTE-I 20 Oct 18:56:49 19:02:03 62° 71° (ENE) 19:07:20 437.470
BEESAT 20 Oct 19:02:35 19:05:32 17° 302° (WNW) 19:08:28 436.000
DOVE 4 20 Oct 19:09:18 19:12:45 24° 267° (W) 19:16:21 437.250
XW-2C 20 Oct 19:12:28 19:16:16 80° 257° (WSW) 19:20:05 145.795 - 145.815
CUBEBUG 2 20 Oct 19:33:45 19:37:43 27° 65° (ENE) 19:41:44 437.445
HO-68 20 Oct 19:34:23 19:41:24 62° 67° (ENE) 19:48:29 435.675
PCSat 20 Oct 19:34:40 19:39:19 30° 249° (WSW) 19:43:58 145.827
KKS-1 20 Oct 19:40:18 19:44:43 58° 288° (WNW) 19:49:07 437.445
ZACube-1 20 Oct 19:50:07 19:52:33 14° 59° (ENE) 19:54:59 437.345
KAITUO 1B 20 Oct 19:55:25 19:58:49 33° 263° (W) 20:02:14 145.475/437.950
XW-2F 20 Oct 19:57:58 20:01:09 26° 265° (W) 20:04:20 145.980 - 146.000
BEESAT 3 20 Oct 20:01:58 20:04:12 14° 30° (NNE) 20:06:24 437.485
LilacSat-2 20 Oct 20:04:08 20:07:00 20° 267° (W) 20:09:53 437.200
XW-2A 20 Oct 20:05:18 20:08:16 28° 69° (ENE) 20:11:12 145.665 - 145.685
CUBESAT XI-V 20 Oct 20:05:33 20:07:42 13° 302° (WNW) 20:09:50 437.345
CUTE 1.7 + AOD 2 20 Oct 20:06:23 20:10:38 85° 72° (ENE) 20:14:52 437.475
NUDT-PHONESAT 20 Oct 20:09:35 20:12:40 24° 266° (W) 20:15:45 437.300
UWE-3 20 Oct 20:10:56 20:15:11 36° 68° (ENE) 20:19:28 435.000/436.395/437.385
XW-2D 20 Oct 20:11:18 20:13:54 17° 268° (W) 20:16:31 145.860 - 145.880
STARS 20 Oct 20:12:19 20:16:43 63° 288° (WNW) 20:21:06 437.465
SEEDS 20 Oct 20:13:05 20:17:12 63° 73° (ENE) 20:21:20 437.485
XW-2B 20 Oct 20:25:38 20:27:30 13° 270° (W) 20:29:21 145.730 - 145.750
Oscar 11 20 Oct 20:25:47 20:28:45 18° 62° (ENE) 20:31:43 .
YUBILEINY 20 Oct 20:33:56 20:41:44 34° 65° (ENE) 20:49:32 435.215
AAUSAT CUBESAT 2 20 Oct 20:36:14 20:40:12 50° 72° (ENE) 20:44:11 437.432
CUTE-I 20 Oct 20:38:39 20:42:32 20° 269° (W) 20:46:26 437.470
STRAND 1 20 Oct 21:00:39 21:05:33 41° 98° (E) 21:10:24 437.568
AO-73 20 Oct 21:01:29 21:05:57 56° 72° (ENE) 21:10:25 145.935
FO-29 20 Oct 21:02:09 21:05:13 13° 84° (E) 21:08:25 435.910
CUBEBUG 2 20 Oct 21:09:45 21:14:08 39° 263° (W) 21:18:38 437.445
AO-85 20 Oct 21:17:05 21:20:18 19° 34° (NE) 21:23:40 145.980
BEESAT 2 20 Oct 21:22:48 21:26:02 22° 38° (NE) 21:29:14 435.950
HO-68 20 Oct 21:23:28 21:29:34 30° 267° (W) 21:35:45 435.675
ZACube-1 20 Oct 21:23:37 21:28:13 81° 259° (W) 21:32:50 437.345
XW-2A 20 Oct 21:38:24 21:40:59 20° 266° (W) 21:43:34 145.665 - 145.685
BEESAT 3 20 Oct 21:38:29 21:42:29 70° 51° (NE) 21:46:23 437.485
UWE-3 20 Oct 21:47:39 21:51:41 28° 266° (W) 21:55:45 435.000/436.395/437.385
O/OREOS (USA 219) 20 Oct 21:47:44 21:52:07 49° 109° (ESE) 21:56:34 437.305
SEEDS 20 Oct 21:51:14 21:53:18 13° 271° (W) 21:55:22 437.485
Oscar 11 20 Oct 22:00:15 22:04:30 53° 260° (W) 22:08:46 .
DELFI C3 20 Oct 22:01:17 22:04:51 35° 70° (ENE) 22:08:27 145.870
AAUSAT CUBESAT 2 20 Oct 22:13:22 22:15:57 16° 270° (W) 22:18:32 437.432
YUBILEINY 20 Oct 22:30:29 22:39:08 64° 268° (W) 22:47:48 435.215
AO-73 20 Oct 22:39:23 22:42:30 18° 270° (W) 22:45:37 145.935
EO-88 20 Oct 22:39:36 22:43:09 50° 73° (ENE) 22:46:42 145.990 - 145.960
STRAND 1 20 Oct 22:40:07 22:44:35 30° 296° (WNW) 22:49:01 437.568
UNISAT 6 20 Oct 22:42:16 22:45:11 16° 89° (E) 22:48:03 437.425
FO-29 20 Oct 22:44:28 22:51:16 67° 102° (ESE) 22:58:48 435.910
Max Valier Satellite 20 Oct 22:50:09 22:53:53 87° 262° (W) 22:57:38 145.860
TIGRISAT 20 Oct 22:56:32 23:00:01 21° 91° (E) 23:03:25 435.000
AO-85 20 Oct 22:56:45 23:01:15 90° 347° (NNW) 23:06:08 145.980
BEESAT 2 20 Oct 23:00:06 23:04:05 58° 238° (WSW) 23:08:01 435.950
BEESAT 3 20 Oct 23:17:29 23:19:29 14° 249° (WSW) 23:21:26 437.485
O/OREOS (USA 219) 20 Oct 23:28:05 23:31:48 24° 309° (NW) 23:35:33 437.305
LO-87 20 Oct 23:28:18 23:31:19 26° 68° (ENE) 23:34:22 145.935 - 145.965
DELFI C3 20 Oct 23:36:46 23:39:43 20° 267° (W) 23:42:42 145.870
PRISM 20 Oct 23:39:12 23:42:34 24° 95° (E) 23:45:56 437.425
ESTCUBE 1 21 Oct 00:05:23 00:09:44 52° 71° (ENE) 00:14:07 437.505/2401.250
EO-88 21 Oct 00:15:19 00:17:05 13° 270° (W) 00:18:51 145.990 - 145.960
UNISAT 6 21 Oct 00:17:44 00:22:19 61° 288° (WNW) 00:26:47 437.425
AIST 2D 21 Oct 00:29:08 00:31:48 20° 93° (E) 00:34:28 435.315
FO-29 21 Oct 00:30:15 00:35:56 30° 299° (WNW) 00:42:06 435.910
YUBILEINY 21 Oct 00:30:20 00:34:04 13° 290° (WNW) 00:37:49 435.215
TIGRISAT 21 Oct 00:32:30 00:36:58 48° 290° (WNW) 00:41:18 435.000
AO-85 21 Oct 00:38:50 00:41:08 14° 250° (WSW) 00:43:30 145.980
SPROUT 21 Oct 00:40:52 00:44:39 32° 67° (ENE) 00:48:29 437.525
RS-15 21 Oct 00:58:19 01:09:03 38° 106° (ESE) 01:19:46 29.354- 29.394
DX 1 21 Oct 01:00:58 01:02:22 11° 56° (ENE) 01:03:47 434.975-435.025
LO-87 21 Oct 01:01:42 01:04:41 24° 265° (W) 01:07:42 145.935 - 145.965
EO-79 21 Oct 01:08:33 01:12:01 24° 94° (E) 01:15:27 145.935-145.965
POLYITAN 1 21 Oct 01:13:20 01:16:57 26° 94° (E) 01:20:32 437.675
PRISM 21 Oct 01:14:09 01:17:54 34° 292° (WNW) 01:21:38 437.425
UKube-1 21 Oct 01:23:26 01:25:14 12° 57° (ENE) 01:27:02 .
VELOX 1 21 Oct 01:29:04 01:33:25 70° 75° (ENE) 01:37:49 145.980
QB50P2 21 Oct 01:33:19 01:37:27 46° 99° (E) 01:41:32 145.880/145.840
NANOSAT C BR1 21 Oct 01:36:02 01:40:04 40° 98° (E) 01:44:03 145.865
50 SAT 21 Oct 01:36:42 01:39:12 21° 66° (ENE) 01:41:43 437.505
ESTCUBE 1 21 Oct 01:43:44 01:46:50 18° 269° (W) 01:49:58 437.505/2401.250
DUCHIFAT 1 21 Oct 01:46:25 01:50:31 45° 99° (E) 01:54:33 145.980
BUGSAT 1 21 Oct 01:53:07 01:55:36 15° 90° (E) 01:58:03 437.445
AIST 2D 21 Oct 02:02:00 02:05:00 27° 291° (WNW) 02:07:58 435.315
SPROUT 21 Oct 02:16:52 02:20:32 28° 265° (W) 02:24:16 437.525
DX 1 21 Oct 02:33:31 02:37:50 86° 74° (ENE) 02:42:12 434.975-435.025
